Simultaneous Nadir Overpasses (SNOs) Predictions

Prediction of SNOs between FY3D and NOAA-19 Satellite Orbit:

Table of predicted SNOs for the next 14.0 days since TLE Epoch: 5/18/2019
Index Date (FY3D) Time (FY3D) Lat,Lon (FY3D) SZA (FY3D ) Date (NOAA-19) Time (NOAA-19) Lat,Lon (NOAA-19) SZA (NOAA-19 ) Distance(km) Time Diff (sec)
1 05/29/2019 09:53:16 -80.14, 172.80 119.24 05/29/2019 09:52:04 -80.12, 172.70 119.21 3.00 72
2 05/29/2019 10:44:01 80.14, -19.94 60.77 05/29/2019 10:43:02 80.12, -19.98 60.78 2.39 59
3 05/29/2019 11:34:45 -80.13, 147.48 119.26 05/29/2019 11:34:04 -80.14, 147.47 119.24 0.49 41
4 05/29/2019 12:25:30 80.14, -45.26 60.75 05/29/2019 12:25:02 80.14, -45.21 60.76 1.08 28
5 05/29/2019 13:16:15 -80.16, 121.86 119.23 05/29/2019 13:16:05 -80.13, 121.93 119.25 2.83 10
6 05/29/2019 14:06:59 80.13, -70.59 60.73 05/29/2019 14:07:03 80.14, -70.76 60.75 3.34 4
7 05/29/2019 14:57:44 -80.15, 96.53 119.25 05/29/2019 14:58:05 -80.15, 96.70 119.28 3.20 21
8 05/29/2019 15:48:29 80.16, -96.21 60.76 05/29/2019 15:49:04 80.13, -96.31 60.74 3.12 35
9 05/29/2019 16:39:13 -80.15, 71.21 119.27 05/29/2019 16:40:06 -80.15, 71.16 119.28 1.08 53




NCC Satellite Simultaneous Nadir Overpasses (SNOs) Prediction Service
